Theta_e
317 316 316 315 314 311 311 306 300 310 303 293 291 291 298 301 303 306 301 301 300 297 298 295 295 295 297 303 301 298 296 290 288 292 299 300 296 294 290 286 286 286 290 290
317 316 316 315 313 312 309 302 302 314 305 291 290 296 303 305 303 303 301 300 302 302 298 294 297 298 304 305 301 295 298 289 286 290 295 299 296 297 293 290 287 285 288 290
317 316 316 315 314 313 310 304 299 304 302 298 295 295 299 302 309 306 305 300 303 300 298 296 295 297 303 304 303 316 303 289 289 286 291 295 294 298 296 290 287 286 287 294
317 316 316 316 315 313 310 306 303 305 298 301 296 298 302 302 301 306 302 301 301 300 295 295 295 298 299 302 313 301 296 290 294 293 298 298 297 298 298 292 291 288 290 293
317 317 316 316 314 312 313 305 304 307 303 300 298 298 299 302 304 302 299 300 302 300 296 297 295 297 295 295 298 297 296 292 295 293 299 299 296 299 299 297 296 297 298 296
318 317 317 316 313 312 311 316 315 309 303 300 300 299 303 304 305 305 305 304 303 302 301 303 302 301 300 299 298 296 295 293 291 288 296 296 290 295 297 299 299 296 293 298
319 318 317 316 314 312 309 313 313 305 301 300 303 306 308 306 304 301 305 305 301 304 306 305 304 302 301 302 297 299 294 293 291 288 290 284 293 300 304 301 302 302 302 303
319 319 318 317 315 313 309 313 312 307 300 302 306 308 309 305 303 303 304 305 305 305 303 297 293 294 295 300 300 298 297 292 289 286 285 290 297 299 299 295 298 305 303 305
319 319 319 318 316 313 310 313 318 311 304 303 310 308 309 301 298 302 304 307 306 304 297 295 289 290 295 296 297 297 295 294 290 287 284 283 295 303 306 302 291 306 305 304
318 319 319 319 318 315 311 312 317 313 303 306 310 306 307 310 304 300 302 304 303 302 295 292 291 292 300 295 295 292 291 291 289 288 286 290 299 304 305 290 291 305 306 305
317 318 319 319 319 317 314 313 319 315 304 307 313 316 309 309 306 301 304 303 302 302 296 295 295 294 297 294 296 294 292 289 288 288 286 286 304 302 294 299 304 305 304 303
316 318 318 318 318 318 315 311 320 321 310 308 319 319 320 316 312 306 307 305 303 304 298 297 296 294 294 291 288 296 290 292 290 291 292 300 303 305 306 306 303 304 302 301
315 316 317 317 317 317 315 310 314 316 310 310 311 310 314 315 314 313 305 306 308 304 304 299 296 294 294 290 291 292 297 296 292 293 298 299 305 307 307 307 305 304 302 300
313 314 316 316 316 315 315 310 315 314 310 303 306 315 310 316 314 314 311 309 307 306 303 298 294 293 296 292 294 292 296 299 296 295 298 301 304 307 308 307 306 305 302 301
312 313 315 315 315 314 311 311 316 314 310 303 305 311 312 312 313 313 311 307 304 302 298 295 294 296 297 295 293 294 299 298 295 294 300 300 300 307 309 306 304 303 300 300
311 312 313 314 314 313 312 310 315 313 312 307 301 308 308 309 310 310 308 305 304 302 299 297 298 302 297 292 291 299 303 305 303 301 305 304 307 311 310 306 304 303 300 299
310 311 312 313 312 309 311 309 315 311 311 308 304 301 308 310 310 307 306 306 303 303 300 299 298 299 300 295 292 301 304 306 308 307 306 303 310 307 310 309 307 306 302 300
310 310 311 312 312 310 311 315 312 310 309 310 301 304 303 310 303 302 306 303 303 302 300 299 297 301 299 294 300 303 304 305 307 308 307 304 307 311 310 309 305 302 300 299
310 311 312 309 309 308 312 318 316 310 311 304 304 299 296 307 305 309 305 301 297 302 298 298 300 296 295 298 301 301 304 303 304 305 306 310 309 309 309 307 304 302 300 300
311 310 309 306 313 319 317 311 308 308 308 307 305 305 300 303 302 303 301 301 298 295 299 305 298 296 304 305 303 304 305 305 306 301 299 302 306 308 308 307 307 306 305 305
311 310 310 316 316 311 308 303 303 302 300 304 305 306 305 307 302 303 304 298 298 293 298 298 295 297 304 307 309 309 310 308 307 306 305 304 305 306 306 307 310 310 309 308
310 309 309 312 309 304 301 299 302 300 298 303 303 304 307 307 309 302 301 298 298 293 301 298 293 301 305 307 307 308 305 307 308 308 307 307 307 306 306 306 306 305 307 309
312 307 304 304 302 293 297 295 297 298 303 305 304 303 304 306 309 301 299 297 296 302 297 295 298 304 307 306 308 309 306 309 308 309 306 306 305 306 305 303 304 303 304 305
308 305 291 298 297 300 299 298 300 307 307 305 305 307 306 303 301 301 297 300 300 296 293 295 302 306 307 308 309 307 305 307 307 306 305 306 306 305 306 305 305 305 304 305
305 306 295 299 304 305 308 308 306 310 312 306 307 308 305 304 299 300 299 297 295 297 295 301 306 307 307 307 307 307 307 305 304 304 305 306 305 304 304 306 304 303 305 304
306 303 301 305 304 305 306 305 303 310 311 308 308 305 303 301 299 298 298 296 295 297 303 306 308 307 308 307 308 307 308 306 305 305 305 305 304 303 304 305 305 305 305 305
304 301 306 305 305 307 309 308 308 311 311 302 303 300 298 302 298 297 299 297 299 306 308 310 309 309 309 308 307 308 307 306 305 305 304 305 306 305 304 303 305 306 306 305
Wind_Speed
16 17 18 20 21 27 8 4 4 3 3 5 1 2 4 8 18 14 8 8 10 5 7 6 7 5 3 3 2 4 2 6 1 5 9 2 4 3 5 7 4 5 7 1
15 16 18 19 17 12 5 3 5 4 7 2 3 5 4 3 5 7 5 6 1 6 6 9 7 5 6 6 6 2 3 4 4 10 10 9 6 5 4 5 4 1 7 3
13 15 17 19 20 12 2 2 5 6 6 2 5 2 5 6 7 13 9 6 7 8 8 5 6 5 5 6 5 6 8 4 7 6 4 4 4 6 4 6 4 4 3 8
13 15 17 19 23 24 4 1 3 2 4 6 2 1 2 9 5 8 4 8 6 8 7 7 7 6 6 6 2 5 6 4 4 4 2 4 4 7 7 1 5 6 7 8
12 14 15 18 23 23 3 3 4 5 4 6 4 5 4 6 10 4 4 11 13 12 5 8 10 9 4 4 4 5 5 2 4 7 7 7 3 7 8 5 13 17 12 7
12 13 14 15 17 15 3 4 4 3 5 6 5 3 8 10 4 17 13 15 16 19 6 10 11 8 6 10 8 3 4 4 4 4 6 6 5 7 9 10 10 8 5 4
11 12 13 13 11 7 2 4 2 3 5 1 2 5 5 6 9 5 9 14 9 1 3 6 9 11 9 11 4 7 5 4 3 4 4 0 4 3 16 19 11 10 9 6
11 12 12 12 11 8 2 3 2 2 3 4 7 12 5 6 9 8 8 7 2 1 8 6 7 6 5 3 5 7 7 5 3 4 2 3 3 4 1 3 3 3 8 5
11 11 11 12 12 12 3 3 1 2 2 3 7 4 5 3 3 6 4 6 7 9 5 5 3 2 3 2 4 6 7 7 6 2 2 4 4 4 3 4 1 3 7 5
12 10 11 11 12 11 3 4 1 2 1 4 4 4 4 5 5 2 3 3 6 6 3 4 2 0 5 2 5 4 3 3 5 3 3 3 2 1 2 3 5 3 6 5
11 10 11 11 11 11 5 6 3 2 2 6 4 1 2 5 3 3 4 6 7 5 5 3 2 3 3 3 2 7 7 6 4 2 3 5 2 3 2 6 4 7 5 4
11 11 11 11 10 11 9 3 4 2 3 6 6 6 10 7 4 2 4 5 3 4 5 2 2 3 3 3 1 3 2 7 6 6 6 3 4 6 4 7 6 5 5 4
10 11 11 11 11 10 7 3 4 4 3 5 4 4 3 1 1 4 5 3 3 3 5 4 2 4 4 2 2 3 6 3 4 4 3 3 4 3 5 7 8 6 6 6
10 12 11 11 11 10 6 2 3 1 1 1 8 4 4 3 5 2 4 6 6 5 4 3 3 1 2 3 4 5 5 4 3 2 3 1 4 4 7 8 9 9 7 6
10 10 11 11 11 10 3 3 3 2 4 2 5 8 5 1 2 6 6 6 5 3 3 4 2 1 4 2 3 2 3 6 4 6 8 6 5 10 11 12 11 11 8 6
9 10 10 11 12 11 2 3 2 4 3 2 4 5 3 1 2 4 4 2 3 3 4 3 3 3 5 4 2 6 3 2 6 6 8 6 4 12 8 8 10 9 8 6
10 10 10 11 10 3 2 5 4 5 2 2 4 5 5 3 3 3 2 3 1 4 1 0 2 3 5 4 3 5 4 5 5 4 7 5 7 8 9 7 10 8 5 6
9 10 11 11 11 8 4 2 4 3 2 2 1 4 3 1 1 1 1 1 3 3 3 2 2 3 3 1 6 5 5 4 6 7 7 4 5 11 9 6 8 8 8 8
10 11 10 4 1 1 3 0 3 1 3 1 1 4 4 2 2 2 2 3 2 2 2 3 5 1 4 8 6 6 6 5 3 3 6 9 9 12 12 10 10 8 9 9
9 2 2 2 3 3 3 4 3 3 1 1 3 1 2 5 1 1 3 2 1 1 6 1 3 3 3 4 5 4 4 6 5 6 3 5 5 10 10 11 12 11 11 8
2 1 2 3 3 3 2 1 2 2 2 3 5 5 2 2 3 2 2 3 0 1 7 5 1 2 4 4 4 4 6 7 8 5 5 6 7 9 8 8 11 13 11 11
2 2 4 3 2 2 1 3 3 2 5 3 4 4 5 3 4 4 2 2 2 5 2 3 3 5 6 5 6 3 4 4 8 8 8 9 9 9 8 7 7 7 9 9
1 1 1 3 2 2 4 5 3 2 3 3 1 1 4 3 4 3 3 1 5 1 0 4 5 3 4 7 4 5 2 7 5 6 7 7 7 8 7 6 4 6 7 8
1 3 3 4 4 5 6 5 5 6 3 2 3 2 3 2 3 3 4 6 2 2 2 5 3 6 6 5 3 3 2 4 8 8 7 6 7 7 6 6 4 4 4 5
2 2 4 6 6 4 4 4 1 2 1 3 3 3 4 3 3 1 2 2 3 5 5 4 4 5 6 4 2 4 5 5 7 6 6 6 5 5 2 3 4 3 4 5
2 4 3 4 2 4 2 1 2 2 2 3 3 3 3 4 4 3 6 3 5 5 4 4 5 6 5 4 4 4 5 7 7 6 4 4 4 4 4 3 4 4 5 6
3 4 4 4 4 5 4 2 3 1 5 2 3 5 6 0 1 4 4 6 5 4 2 3 6 6 5 5 5 5 6 6 6 5 5 4 4 3 2 4 5 6 8 7
Wind_Direction
333 334 335 339 344 339 31 352 5 274 42 62 56 209 251 303 308 312 277 283 221 160 183 58 81 87 112 344 76 64 338 124 131 244 311 89 112 118 108 108 305 44 103 321
331 333 334 339 342 11 326 345 273 315 98 137 278 295 291 266 293 287 270 274 69 74 107 95 100 77 326 82 74 107 342 21 32 351 353 6 51 1 62 110 86 162 110 167
333 334 337 338 335 339 199 18 350 322 29 94 138 346 307 309 285 284 248 192 79 82 59 69 126 123 48 34 90 100 78 87 133 163 212 231 341 339 50 97 82 117 83 154
336 335 338 342 338 346 142 101 277 188 312 329 316 92 288 297 303 228 311 17 116 131 109 82 121 105 105 9 131 79 95 110 118 175 329 2 307 318 318 345 174 118 199 118
335 335 341 347 346 346 18 50 31 344 283 309 3 354 324 315 332 298 30 84 63 61 106 143 165 127 119 160 9 62 21 3 51 355 9 24 335 323 316 359 88 103 117 99
336 336 343 352 357 355 2 320 317 101 293 333 30 348 307 346 217 22 46 96 81 64 25 100 122 118 121 144 115 97 82 105 73 302 344 1 24 314 80 64 43 139 106 139
332 334 340 346 3 31 234 263 343 47 290 281 338 0 322 320 47 78 36 49 70 335 132 115 48 66 91 103 91 129 115 93 101 213 31 264 223 40 98 91 65 69 82 77
335 330 335 340 347 345 253 270 61 76 305 301 340 347 335 344 9 32 46 23 228 238 46 51 43 8 51 73 134 101 109 110 78 119 177 268 330 20 62 116 86 96 111 95
329 334 331 336 343 348 294 273 196 98 122 297 283 337 329 61 324 356 13 352 10 58 72 66 100 156 151 50 54 38 63 94 111 97 131 232 208 301 355 71 119 23 96 71
340 338 330 338 342 346 313 283 125 117 128 274 342 24 319 329 332 82 342 18 20 52 52 67 108 176 138 123 145 169 77 36 153 176 221 279 240 246 49 101 217 130 96 79
338 334 338 336 340 348 356 272 251 120 179 268 231 321 326 340 7 66 293 36 354 35 52 94 276 107 227 113 192 165 160 152 194 110 170 260 297 52 164 184 166 135 119 142
336 342 340 336 340 347 350 293 315 346 152 247 225 257 260 227 262 176 353 154 160 186 88 38 84 38 51 147 277 359 69 173 179 156 208 228 307 136 122 157 141 164 139 127
324 335 331 331 336 347 10 288 298 352 38 317 354 330 292 351 339 201 123 340 160 52 165 156 157 78 117 101 256 63 330 138 106 99 312 152 134 89 152 159 139 132 128 158
324 319 319 323 330 333 358 321 296 117 275 114 281 314 322 281 12 21 105 132 53 98 68 99 116 132 138 187 179 133 209 64 112 51 267 314 256 171 151 116 124 138 169 181
315 317 316 320 324 323 279 212 273 296 127 236 280 309 281 27 37 14 50 79 82 71 35 62 233 211 87 333 71 340 189 178 143 216 204 173 215 169 167 157 167 170 169 178
309 312 309 316 322 324 40 35 284 352 57 69 330 286 332 90 92 1 60 99 95 94 131 220 272 245 103 104 168 271 279 204 160 199 193 171 185 168 151 161 163 168 187 192
300 307 311 310 314 315 141 189 238 21 356 80 323 330 287 178 59 4 49 25 107 113 132 296 174 291 84 105 178 215 259 288 213 138 128 123 164 196 174 158 176 164 186 216
296 300 303 302 301 285 309 275 245 167 81 87 244 266 14 113 341 353 132 44 28 336 190 356 131 349 64 194 230 221 235 265 78 195 211 205 175 136 169 140 151 164 200 217
296 301 308 321 252 241 235 179 149 122 132 192 262 159 228 41 225 216 25 107 84 297 169 240 104 230 208 231 182 222 213 150 130 107 145 143 146 164 164 167 175 198 215 214
297 320 65 309 237 236 137 24 40 8 268 228 238 249 274 108 105 293 84 39 190 12 250 72 123 233 253 216 191 235 247 212 203 134 139 128 159 177 169 194 200 207 218 217
262 237 228 264 315 45 33 282 146 229 237 211 232 187 212 308 133 171 116 178 242 63 264 125 255 255 243 267 257 290 236 226 234 155 138 138 139 146 177 210 215 212 220 213
318 301 277 311 18 21 209 236 282 169 219 255 171 219 182 259 102 91 334 146 55 244 239 101 265 247 217 233 247 281 214 109 139 147 134 141 151 167 182 204 212 216 205 213
221 255 262 86 275 53 201 203 243 230 224 245 143 164 151 12 68 74 88 123 234 5 332 225 223 220 206 228 250 240 145 156 166 134 141 148 159 156 156 187 213 208 202 220
234 169 301 178 220 231 200 204 193 232 207 212 138 121 134 176 82 152 147 229 98 275 264 229 233 212 209 201 205 84 190 110 131 135 148 156 161 179 190 201 186 158 229 230
258 235 226 223 236 262 246 215 293 274 117 102 78 40 110 38 114 167 86 275 240 220 224 220 206 192 172 165 125 125 83 135 139 141 124 125 133 157 193 212 218 232 225 228
244 244 285 268 295 291 282 284 271 288 71 22 70 57 122 197 181 143 217 197 210 245 210 202 161 178 167 162 134 142 99 134 146 142 153 173 174 186 216 211 222 224 213 242
243 250 244 248 258 244 259 197 226 245 86 217 116 147 217 5 187 221 196 202 225 202 174 157 167 173 185 160 162 149 140 136 148 162 171 190 207 216 253 254 257 243 249 241